CW3065 Weather Reports


time (UTC)temp
C
wind
direction
speed
KPH
gust
KPH
rain 1hr
cm
rain 24hr
cm
rain mn
cm
humidity
%
barometer
mb
20260509051004 5 215 3.2 4.8 0.00 0.00 0.00 77 1006.7
20260509050504 5 215 1.6 4.8 0.00 0.00 0.00 79 1006.7
20260509045504 5 21 1.6 3.2 0.00 0.00 0.00 79 1006.7
20260509045004 5 21 1.6 3.2 0.00 0.00 0.00 79 1006.7
20260509044504 5 21 0.0 1.6 0.00 0.00 0.00 79 1006.7
20260509043004 5 218 0.0 3.2 0.00 0.00 0.00 77 1007.1
20260509042504 5 218 0.0 3.2 0.00 0.00 0.00 77 1007.1
20260509042004 5 218 1.6 4.8 0.00 0.03 0.00 77 1007.1
20260509041504 5 218 4.8 8.0 0.00 0.03 0.00 77 1006.9
20260509041004 5 18 0.0 3.2 0.00 0.03 0.00 77 1006.8
20260509040504 6 18 1.6 3.2 0.00 0.03 0.00 77 1006.7
20260509040005 6 18 1.6 3.2 0.00 0.03 0.00 76 1007.0
20260509035004 6 18 3.2 4.8 0.00 0.03 0.00 76 1006.9
20260509034504 6 18 0.0 0.0 0.00 0.03 0.00 75 1006.8
20260509033504 6 18 4.8 4.8 0.00 0.03 0.00 74 1006.8
20260509033004 6 18 4.8 4.8 0.00 0.03 0.00 73 1006.8
20260509032504 6 18 3.2 4.8 0.00 0.03 0.00 73 1006.7
20260509032004 7 18 3.2 4.8 0.00 0.03 0.00 72 1006.7
20260509031505 7 18 3.2 4.8 0.00 0.03 0.00 73 1006.7
20260509031004 7 18 1.6 3.2 0.00 0.03 0.00 73 1006.6
20260509030504 7 18 4.8 4.8 0.00 0.03 0.00 73 1006.6
20260509030004 7 18 1.6 4.8 0.00 0.03 0.00 72 1006.5
20260509025505 7 18 3.2 4.8 0.00 0.03 0.00 71 1006.6
20260509024504 8 18 1.6 4.8 0.00 0.03 0.00 68 1006.6
20260509024005 8 18 4.8 8.0 0.00 0.03 0.00 68 1006.5
20260509023504 8 18 1.6 4.8 0.00 0.03 0.00 67 1006.6
20260509023004 8 18 1.6 4.8 0.00 0.03 0.00 66 1006.5
20260509022504 9 18 3.2 4.8 0.00 0.03 0.00 65 1006.5
20260509022004 10 18 6.4 8.0 0.00 0.03 0.00 63 1006.5
20260509021504 10 18 6.4 9.7 0.00 0.03 0.00 62 1006.4
20260509021004 10 7 4.8 11.3 0.00 0.03 0.00 60 1006.5
20260509020505 10 262 0.0 4.8 0.00 0.03 0.00 60 1006.5
20260509015503 11 250 0.0 3.2 0.00 0.03 0.00 59 1006.5
20260509015004 11 148 3.2 4.8 0.00 0.03 0.00 58 1006.5
20260509014504 11 148 1.6 4.8 0.00 0.03 0.00 58 1006.4
20260509014004 11 93 6.4 16.1 0.00 0.03 0.00 57 1006.4
20260509013504 11 129 8.0 12.9 0.00 0.03 0.00 57 1006.4
20260509013004 12 93 6.4 11.3 0.00 0.03 0.00 56 1006.4
20260509012504 12 31 8.0 16.1 0.00 0.03 0.00 56 1006.3
20260509012004 12 54 8.0 16.1 0.00 0.03 0.00 54 1006.2
20260509011504 12 351 6.4 11.3 0.00 0.03 0.00 53 1006.2
20260509011004 13 352 4.8 9.7 0.00 0.03 0.00 53 1006.1
20260509010505 13 75 9.7 19.3 0.00 0.03 0.00 52 1005.9
20260509010004 13 25 6.4 16.1 0.00 0.03 0.00 52 1006.0
20260509005004 13 344 3.2 9.7 0.00 0.03 0.00 51 1006.0
20260509004504 13 8 8.0 11.3 0.00 0.03 0.00 49 1005.9
20260509004005 13 22 9.7 12.9 0.00 0.03 0.00 50 1005.9
20260509003504 14 17 8.0 14.5 0.00 0.03 0.00 48 1005.9
20260509003004 14 77 8.0 14.5 0.00 0.03 0.00 48 1005.8
20260509002504 14 44 4.8 9.7 0.00 0.03 0.00 48 1005.9
20260509001504 15 121 4.8 19.3 0.00 0.03 0.00 45 1005.9
20260509000505 17 271 3.2 4.8 0.00 0.03 0.00 28 1006.1
20260509000005 17 271 3.2 4.8 0.00 0.03 0.00 29 1006.1
20260508235504 17 302 4.8 8.0 0.00 0.03 0.00 29 1006.2
20260508235004 17 313 9.7 19.3 0.00 0.03 0.00 29 1006.2
20260508234504 17 289 4.8 19.3 0.00 0.03 0.00 29 1006.1
20260508234004 17 309 14.5 19.3 0.00 0.03 0.00 28 1006.2
20260508233504 17 271 4.8 19.3 0.00 0.03 0.00 28 1006.2
20260508233004 17 270 11.3 19.3 0.00 0.03 0.00 28 1006.2
20260508232504 16 271 14.5 24.1 0.00 0.03 0.00 32 1006.1
20260508232004 16 263 3.2 4.8 0.00 0.03 0.00 31 1006.2
20260508231504 16 263 6.4 16.1 0.00 0.03 0.00 28 1006.2
20260508231004 16 273 8.0 19.3 0.00 0.03 0.00 28 1006.1
20260508230504 16 274 12.9 22.5 0.00 0.03 0.00 29 1006.1
20260508225504 16 278 4.8 27.4 0.00 0.03 0.00 29 1006.3
20260508225004 16 279 8.0 16.1 0.00 0.03 0.00 31 1006.7
20260508224504 16 322 8.0 19.3 0.00 0.03 0.00 31 1006.7
20260508224005 17 256 9.7 19.3 0.00 0.03 0.00 29 1006.6
20260508223004 16 266 14.5 25.7 0.00 0.03 0.00 30 1006.7
20260508222504 16 267 8.0 19.3 0.00 0.03 0.00 32 1006.6
20260508222004 15 219 8.0 16.1 0.00 0.03 0.00 42 1006.4
20260508221504 15 178 9.7 16.1 0.00 0.03 0.00 43 1006.4
20260508221005 15 21 6.4 11.3 0.00 0.03 0.00 45 1006.4
20260508220504 14 52 3.2 8.0 0.00 0.03 0.00 50 1006.4
20260508220004 13 152 1.6 11.3 0.00 0.03 0.00 50 1006.5
20260508215504 14 151 4.8 14.5 0.00 0.03 0.00 46 1006.5
20260508215004 14 223 1.6 4.8 0.00 0.03 0.00 49 1006.5
20260508214504 14 176 6.4 8.0 0.00 0.03 0.00 42 1006.6
20260508214004 15 155 8.0 11.3 0.00 0.03 0.00 38 1006.8
20260508213504 15 321 1.6 8.0 0.00 0.03 0.00 30 1006.9
20260508213004 15 306 8.0 11.3 0.00 0.03 0.00 29 1007.0
20260508212504 15 246 3.2 11.3 0.00 0.03 0.00 30 1007.0
20260508212004 15 247 4.8 9.7 0.00 0.03 0.00 30 1007.0
20260508211005 15 269 1.6 4.8 0.00 0.03 0.00 30 1007.0
20260508210504 15 275 9.7 19.3 0.00 0.03 0.00 31 1007.1
20260508210004 15 256 11.3 19.3 0.00 0.03 0.00 30 1007.3
20260508205503 15 238 4.8 11.3 0.00 0.03 0.00 29 1007.4
20260508205004 15 260 11.3 19.3 0.00 0.03 0.00 28 1007.4
20260508204504 15 244 3.2 9.7 0.00 0.03 0.00 29 1007.4
20260508204004 14 262 3.2 8.0 0.00 0.03 0.00 31 1007.4
20260508203504 15 230 8.0 14.5 0.00 0.03 0.00 29 1007.2
20260508203004 15 271 0.0 4.8 0.00 0.03 0.00 28 1007.2
20260508202504 15 226 3.2 8.0 0.00 0.03 0.00 31 1007.3
20260508202004 15 230 8.0 16.1 0.00 0.03 0.00 29 1007.3
20260508201504 15 271 12.9 19.3 0.00 0.03 0.00 28 1007.4
20260508200504 15 202 4.8 19.3 0.00 0.03 0.00 32 1007.5
20260508195504 15 323 6.4 16.1 0.00 0.03 0.00 31 1007.6
20260508195004 15 318 4.8 12.9 0.00 0.03 0.00 32 1008.0
20260508194504 15 257 4.8 11.3 0.00 0.03 0.00 29 1008.1
20260508194004 15 248 4.8 9.7 0.00 0.03 0.00 27 1008.1
20260508193505 15 353 8.0 16.1 0.00 0.03 0.00 30 1008.0
20260508193004 15 330 8.0 19.3 0.00 0.03 0.00 31 1008.1
20260508192504 15 253 3.2 11.3 0.00 0.03 0.00 32 1008.3
20260508191505 15 232 11.3 25.7 0.00 0.03 0.00 27 1008.2
20260508191004 15 240 4.8 9.7 0.00 0.03 0.00 29 1008.5
20260508190004 13 257 11.3 20.9 0.00 0.03 0.00 31 1008.5
20260508185504 13 323 6.4 24.1 0.00 0.03 0.00 36 1008.7
20260508185005 13 274 11.3 24.1 0.00 0.03 0.00 31 1008.6
20260508184504 13 244 1.6 20.9 0.00 0.03 0.00 32 1008.7
20260508184004 13 291 11.3 19.3 0.00 0.03 0.00 35 1008.7
20260508183004 13 220 4.8 11.3 0.00 0.03 0.00 33 1008.6
20260508182504 13 309 8.0 24.1 0.00 0.03 0.00 37 1008.7
20260508182004 12 220 3.2 9.7 0.00 0.03 0.00 35 1008.8
20260508181504 12 244 3.2 11.3 0.00 0.03 0.00 36 1008.8
20260508180504 12 242 16.1 29.0 0.00 0.03 0.00 36 1008.9
20260508180004 12 230 14.5 22.5 0.00 0.03 0.00 35 1008.8
20260508175504 12 220 6.4 8.0 0.00 0.03 0.00 37 1008.9
20260508175004 11 250 8.0 19.3 0.00 0.03 0.00 37 1009.0
20260508174504 11 254 9.7 20.9 0.00 0.03 0.00 37 1008.9
20260508174004 11 260 9.7 19.3 0.00 0.03 0.00 39 1009.0
20260508173504 11 237 9.7 16.1 0.00 0.03 0.00 40 1008.9
20260508173004 10 241 3.2 9.7 0.00 0.03 0.00 43 1008.9
20260508172504 10 350 4.8 9.7 0.00 0.03 0.00 47 1008.8
20260508172004 10 70 1.6 3.2 0.00 0.03 0.00 48 1009.0
20260508171504 10 70 3.2 4.8 0.00 0.03 0.00 48 1008.9
20260508171004 10 359 4.8 8.0 0.00 0.03 0.00 53 1009.2
20260508170504 9 61 3.2 8.0 0.00 0.03 0.00 58 1009.4
20260508170004 9 193 0.0 4.8 0.00 0.03 0.00 56 1009.5
20260508165504 8 124 4.8 8.0 0.00 0.03 0.00 57 1009.5
20260508165004 8 126 3.2 4.8 0.00 0.03 0.00 58 1009.5
20260508163504 9 57 4.8 9.7 0.00 0.03 0.00 61 1009.5
20260508163004 8 119 3.2 9.7 0.00 0.03 0.00 58 1009.5
20260508162504 9 119 1.6 4.8 0.00 0.03 0.00 60 1009.5
20260508162004 9 119 0.0 4.8 0.00 0.03 0.00 62 1009.6
20260508161504 8 119 3.2 4.8 0.00 0.03 0.00 63 1009.6
20260508161004 8 119 0.0 1.6 0.00 0.03 0.00 62 1009.5
20260508160505 8 119 1.6 4.8 0.00 0.03 0.00 60 1009.6
20260508155504 8 119 0.0 1.6 0.00 0.03 0.00 62 1009.7
20260508155004 8 119 1.6 4.8 0.00 0.03 0.00 61 1009.7
20260508154004 8 119 1.6 3.2 0.00 0.03 0.00 60 1009.6
20260508153504 8 119 1.6 3.2 0.00 0.03 0.00 64 1009.6
20260508153004 7 119 1.6 3.2 0.00 0.03 0.00 67 1009.5
20260508152504 7 119 1.6 3.2 0.00 0.03 0.00 70 1009.5
20260508151504 7 119 3.2 4.8 0.00 0.03 0.00 70 1009.5
20260508151004 7 119 1.6 3.2 0.00 0.03 0.00 69 1009.4
20260508150504 7 119 3.2 4.8 0.00 0.03 0.00 69 1009.4
20260508150005 7 119 3.2 4.8 0.00 0.03 0.00 71 1009.3
20260508145504 7 119 1.6 4.8 0.00 0.03 0.00 69 1009.2
20260508145004 7 119 3.2 4.8 0.00 0.03 0.00 70 1009.3
20260508144504 7 119 0.0 1.6 0.00 0.03 0.00 69 1009.2
20260508144004 7 119 1.6 4.8 0.00 0.03 0.00 71 1009.2
20260508143505 6 119 3.2 4.8 0.00 0.03 0.00 75 1009.3
20260508143004 6 156 1.6 3.2 0.00 0.03 0.00 74 1009.3
20260508142504 5 156 3.2 4.8 0.00 0.03 0.00 74 1009.2
20260508141504 5 158 3.2 4.8 0.00 0.03 0.00 75 1009.3
20260508141004 5 219 1.6 3.2 0.00 0.03 0.00 78 1009.3
20260508140004 4 219 1.6 4.8 0.00 0.03 0.00 82 1009.5
20260508135505 4 219 1.6 4.8 0.00 0.03 0.00 83 1009.4
20260508135004 3 219 1.6 4.8 0.00 0.03 0.00 84 1009.4
20260508134504 3 219 8.0 8.0 0.00 0.03 0.00 84 1009.3
20260508134004 3 219 1.6 4.8 0.00 0.03 0.00 85 1009.4
20260508133504 3 219 0.0 0.0 0.00 0.03 0.00 86 1009.5
20260508133004 3 219 0.0 0.0 0.00 0.03 0.00 87 1009.5
20260508132504 3 219 0.0 0.0 0.00 0.03 0.00 89 1010.0
20260508131504 2 219 1.6 3.2 0.00 0.03 0.00 90 1009.8
20260508130504 1 290 0.0 0.0 0.00 0.03 0.00 91 1009.6
20260508130004 1 290 0.0 0.0 0.00 0.03 0.00 91 1009.6
20260508125504 1 290 1.6 4.8 0.00 0.03 0.00 91 1009.6
20260508125004 1 290 4.8 8.0 0.00 0.03 0.00 91 1009.6
20260508124504 1 290 4.8 8.0 0.00 0.03 0.00 91 1009.4
20260508124004 1 290 3.2 8.0 0.00 0.03 0.00 91 1009.3
20260508123504 1 290 4.8 8.0 0.00 0.03 0.00 90 1009.0
20260508123004 2 290 4.8 9.7 0.00 0.03 0.00 91 1009.0
20260508122504 2 293 6.4 11.3 0.00 0.03 0.00 90 1009.1
20260508121504 2 187 9.7 11.3 0.00 0.03 0.00 92 1009.1
20260508121004 2 150 9.7 14.5 0.00 0.03 0.00 94 1009.4
20260508115504 1 116 4.8 8.0 0.00 0.03 0.00 94 1009.5
20260508114504 1 21 9.7 22.5 0.00 0.03 0.00 95 1009.6
20260508114004 1 16 16.1 22.5 0.00 0.03 0.00 95 1009.7
20260508113504 1 27 16.1 19.3 0.00 0.03 0.00 95 1009.7
20260508113005 0 34 19.3 27.4 0.00 0.03 0.00 95 1009.8
20260508112504 0 29 12.9 19.3 0.00 0.03 0.00 95 1009.7
20260508112005 0 31 9.7 14.5 0.00 0.03 0.00 94 1009.1
20260508111004 0 346 1.6 3.2 0.00 0.03 0.00 94 1009.0
20260508110504 0 346 0.0 0.0 0.00 0.03 0.00 94 1008.8
20260508110005 0 346 0.0 0.0 0.00 0.03 0.00 94 1008.8
20260508105504 0 346 0.0 0.0 0.00 0.03 0.00 93 1008.7
20260508105004 0 346 0.0 0.0 0.00 0.03 0.00 93 1008.3
20260508104005 0 346 0.0 4.8 0.00 0.03 0.00 94 1008.3
20260508103504 0 346 3.2 4.8 0.00 0.03 0.00 94 1008.5
20260508103004 0 346 3.2 4.8 0.00 0.03 0.00 94 1008.5
20260508102504 0 203 4.8 4.8 0.00 0.03 0.00 94 1008.5
20260508101504 0 86 1.6 9.7 0.00 0.03 0.00 93 1008.5
20260508100004 0 233 6.4 9.7 0.00 0.03 0.00 94 1008.1
20260508095504 0 223 4.8 8.0 0.00 0.03 0.00 94 1007.9
20260508095004 0 310 3.2 4.8 0.00 0.03 0.00 94 1008.2
20260508094504 0 324 3.2 4.8 0.00 0.03 0.00 93 1008.0
20260508094004 0 286 1.6 4.8 0.00 0.03 0.00 93 1008.3
20260508093504 0 356 3.2 4.8 0.00 0.03 0.00 93 1008.1
20260508092504 0 352 4.8 11.3 0.00 0.03 0.00 92 1008.0
20260508092004 0 351 1.6 4.8 0.00 0.03 0.00 93 1007.8
20260508091504 0 299 0.0 0.0 0.00 0.03 0.00 93 1007.8
20260508091004 0 299 0.0 4.8 0.00 0.03 0.00 92 1007.9
20260508090504 0 299 0.0 4.8 0.00 0.03 0.00 92 1007.9
20260508090004 0 323 0.0 0.0 0.00 0.03 0.00 92 1007.9
20260508085504 0 323 0.0 0.0 0.00 0.03 0.00 92 1008.0
20260508085004 0 323 0.0 0.0 0.00 0.03 0.00 92 1008.0
20260508084504 0 323 0.0 0.0 0.00 0.03 0.00 93 1007.9
20260508084004 0 323 0.0 3.2 0.00 0.03 0.00 93 1007.9
20260508083504 0 323 1.6 12.9 0.00 0.03 0.00 92 1008.2
20260508083004 0 313 1.6 9.7 0.00 0.03 0.00 92 1008.2
20260508082004 1 346 0.0 3.2 0.00 0.03 0.00 91 1008.0
20260508080504 1 24 8.0 8.0 0.00 0.03 0.00 91 1008.3
20260508080004 1 259 1.6 3.2 0.00 0.03 0.00 92 1008.4
20260508075504 1 259 3.2 4.8 0.00 0.03 0.00 91 1008.3
20260508075004 1 259 1.6 3.2 0.00 0.03 0.00 92 1008.6
20260508074504 1 259 1.6 8.0 0.00 0.03 0.00 92 1008.5
20260508074004 1 259 4.8 9.7 0.00 0.03 0.00 91 1008.8
20260508073504 1 260 0.0 4.8 0.00 0.03 0.00 91 1008.5
20260508073004 1 260 4.8 4.8 0.00 0.03 0.00 91 1008.7
20260508072504 1 260 1.6 4.8 0.00 0.03 0.00 91 1008.7
20260508072004 1 260 3.2 4.8 0.00 0.03 0.00 91 1008.9
20260508071504 1 32 4.8 8.0 0.00 0.03 0.00 90 1008.8
20260508071003 1 260 1.6 4.8 0.00 0.03 0.00 91 1008.8
20260508065504 1 356 3.2 4.8 0.00 0.03 0.00 90 1008.8
20260508065004 1 340 0.0 0.0 0.00 0.03 0.00 90 1008.9
20260508064504 1 340 1.6 4.8 0.00 0.03 0.00 89 1008.7
20260508064004 1 340 4.8 4.8 0.00 0.03 0.00 89 1008.7
20260508063504 2 340 3.2 4.8 0.00 0.03 0.00 89 1008.7
20260508062504 2 210 3.2 4.8 0.00 0.03 0.00 88 1008.7
20260508062005 2 210 1.6 4.8 0.00 0.03 0.00 87 1008.6
20260508061504 2 210 3.2 8.0 0.00 0.03 0.00 88 1008.5
20260508061004 2 210 0.0 4.8 0.00 0.03 0.00 87 1008.4
20260508060504 2 210 4.8 4.8 0.00 0.03 0.00 86 1008.5
20260508060005 3 358 4.8 4.8 0.00 0.03 0.00 85 1008.4
20260508055504 3 342 3.2 4.8 0.00 0.03 0.03 85 1008.4
20260508055004 3 342 4.8 4.8 0.00 0.03 0.03 85 1008.4
20260508054504 3 342 4.8 11.3 0.00 0.03 0.03 84 1008.5
20260508054004 3 350 6.4 9.7 0.00 0.03 0.03 84 1008.4
20260508053504 3 252 8.0 11.3 0.00 0.03 0.03 84 1008.5
20260508053004 3 252 6.4 9.7 0.00 0.03 0.03 84 1008.6
20260508052004 3 267 4.8 8.0 0.03 0.03 0.03 84 1008.8